| time (UTC) | temp F | wind direction | speed MPH | gust MPH | rain 1hr in | rain 24hr in | rain mn in | humidity % | barometer mb |
| 20260503014533 | 53 | 78 | 2.0 | 4.0 | 0.00 | 0.05 | 0.05 | 41 | 1011.1 |
| 20260503013040 | 53 | 360 | 1.0 | 5.0 | 0.00 | 0.05 | 0.05 | 40 | 1011.0 |
| 20260503011535 | 53 | 352 | 2.0 | 8.0 | 0.00 | 0.05 | 0.05 | 39 | 1010.8 |
| 20260503010034 | 54 | 331 | 2.0 | 6.0 | 0.00 | 0.05 | 0.05 | 40 | 1010.7 |
| 20260503004536 | 54 | 350 | 2.0 | 7.0 | 0.00 | 0.05 | 0.05 | 40 | 1010.4 |
| 20260503003044 | 54 | 19 | 3.0 | 7.0 | 0.00 | 0.05 | 0.05 | 37 | 1010.5 |
| 20260503001541 | 54 | 340 | 2.0 | 7.0 | 0.00 | 0.05 | 0.05 | 36 | 1010.3 |
| 20260503000041 | 55 | 281 | 2.0 | 9.0 | 0.00 | 0.05 | 0.05 | 35 | 1010.3 |
| 20260502234547 | 56 | 329 | 3.0 | 8.0 | 0.00 | 0.05 | 0.05 | 35 | 1010.0 |
| 20260502233040 | 57 | 332 | 1.0 | 6.0 | 0.00 | 0.05 | 0.05 | 36 | 1009.8 |
| 20260502231533 | 57 | 336 | 2.0 | 9.0 | 0.00 | 0.05 | 0.05 | 35 | 1009.9 |
| 20260502230037 | 58 | 294 | 2.0 | 7.0 | 0.00 | 0.05 | 0.05 | 34 | 1009.8 |
| 20260502224543 | 58 | 0 | 1.0 | 5.0 | 0.00 | 0.05 | 0.05 | 35 | 1009.7 |
| 20260502223041 | 58 | 19 | 2.0 | 5.0 | 0.00 | 0.05 | 0.05 | 35 | 1009.8 |
| 20260502221533 | 60 | 318 | 2.0 | 5.0 | 0.00 | 0.05 | 0.05 | 34 | 1009.6 |
| 20260502220038 | 61 | 5 | 2.0 | 7.0 | 0.00 | 0.05 | 0.05 | 33 | 1009.5 |
| 20260502214544 | 62 | 9 | 3.0 | 8.0 | 0.00 | 0.05 | 0.05 | 33 | 1009.5 |
| 20260502213036 | 61 | 30 | 3.0 | 8.0 | 0.00 | 0.05 | 0.05 | 35 | 1009.5 |
| 20260502211532 | 63 | 300 | 1.0 | 5.0 | 0.00 | 0.05 | 0.05 | 35 | 1009.4 |
| 20260502210037 | 60 | 92 | 3.0 | 7.0 | 0.00 | 0.05 | 0.05 | 35 | 1009.3 |
| 20260502204534 | 60 | 277 | 3.0 | 10.0 | 0.00 | 0.05 | 0.05 | 38 | 1009.3 |
| 20260502203040 | 61 | 296 | 1.0 | 8.0 | 0.00 | 0.05 | 0.05 | 38 | 1009.5 |
| 20260502201533 | 60 | 285 | 3.0 | 8.0 | 0.00 | 0.05 | 0.05 | 38 | 1009.6 |
| 20260502200030 | 58 | 235 | 3.0 | 10.0 | 0.00 | 0.05 | 0.05 | 40 | 1009.8 |
| 20260502194533 | 59 | 254 | 4.0 | 12.0 | 0.00 | 0.05 | 0.05 | 40 | 1010.0 |
| 20260502193054 | 60 | 277 | 3.0 | 8.0 | 0.00 | 0.05 | 0.05 | 43 | 1010.1 |
| 20260502191536 | 61 | 303 | 3.0 | 8.0 | 0.00 | 0.05 | 0.05 | 41 | 1010.4 |
| 20260502190041 | 59 | 63 | 1.0 | 6.0 | 0.00 | 0.05 | 0.05 | 42 | 1010.4 |
| 20260502184530 | 58 | 341 | 3.0 | 8.0 | 0.00 | 0.05 | 0.05 | 47 | 1010.7 |
| 20260502183035 | 59 | 235 | 1.0 | 5.0 | 0.00 | 0.05 | 0.05 | 45 | 1010.7 |
| 20260502181542 | 59 | 271 | 3.0 | 9.0 | 0.00 | 0.05 | 0.05 | 47 | 1010.9 |
| 20260502163045 | 55 | 37 | 4.0 | 9.0 | 0.00 | 0.05 | 0.05 | 62 | 1011.4 |
| 20260502161535 | 56 | 175 | 3.0 | 7.0 | 0.00 | 0.05 | 0.05 | 59 | 1011.4 |
| 20260502151547 | 53 | 261 | 2.0 | 6.0 | 0.00 | 0.05 | 0.05 | 70 | 1011.8 |
| 20260502123038 | 50 | 0 | 0.0 | 0.0 | 0.00 | 0.05 | 0.05 | 89 | 1012.0 |
| 20260502121535 | 49 | 0 | 0.0 | 0.0 | 0.00 | 0.05 | 0.05 | 89 | 1011.7 |
| 20260502114534 | 49 | 0 | 0.0 | 0.0 | 0.00 | 0.05 | 0.05 | 89 | 1011.8 |
| 20260502113036 | 49 | 0 | 0.0 | 0.0 | 0.00 | 0.05 | 0.05 | 89 | 1011.9 |
| 20260502111530 | 49 | 0 | 0.0 | 0.0 | 0.01 | 0.05 | 0.05 | 89 | 1011.8 |
| 20260502110033 | 48 | 0 | 0.0 | 0.0 | 0.03 | 0.05 | 0.05 | 89 | 1011.5 |
| 20260502104537 | 48 | 0 | 0.0 | 0.0 | 0.05 | 0.05 | 0.05 | 89 | 1011.4 |
| 20260502103033 | 48 | 0 | 0.0 | 2.0 | 0.05 | 0.05 | 0.05 | 89 | 1011.4 |
| 20260502101530 | 48 | 0 | 0.0 | 1.0 | 0.04 | 0.04 | 0.04 | 88 | 1011.3 |
| 20260502091534 | 48 | 0 | 0.0 | 0.0 | 0.00 | 0.00 | 0.00 | 88 | 1011.4 |
| 20260502070037 | 48 | 0 | 0.0 | 0.0 | 0.00 | 0.00 | 0.00 | 85 | 1011.0 |
| 20260502064534 | 48 | 0 | 0.0 | 0.0 | 0.00 | 0.00 | 0.00 | 84 | 1011.1 |
| 20260502063034 | 48 | 0 | 0.0 | 0.0 | 0.00 | 0.00 | 0.00 | 84 | 1011.0 |
| 20260502061538 | 48 | 0 | 0.0 | 0.0 | 0.00 | 0.00 | 0.00 | 84 | 1011.3 |
| 20260502060033 | 48 | 0 | 0.0 | 0.0 | 0.00 | 0.00 | 0.00 | 83 | 1011.3 |
| 20260502054530 | 48 | 0 | 0.0 | 0.0 | 0.00 | 0.00 | 0.00 | 83 | 1011.4 |
| 20260502053034 | 48 | 0 | 0.0 | 0.0 | 0.00 | 0.00 | 0.00 | 83 | 1011.5 |
| 20260502051534 | 49 | 0 | 0.0 | 0.0 | 0.00 | 0.00 | 0.00 | 83 | 1011.4 |
| 20260502050035 | 49 | 0 | 0.0 | 0.0 | 0.00 | 0.00 | 0.00 | 83 | 1011.4 |
| 20260502044532 | 48 | 0 | 0.0 | 2.0 | 0.00 | 0.00 | 0.00 | 83 | 1011.5 |
| 20260502043030 | 49 | 0 | 1.0 | 2.0 | 0.00 | 0.00 | 0.00 | 82 | 1011.6 |
| 20260502041533 | 48 | 0 | 0.0 | 0.0 | 0.00 | 0.00 | 0.00 | 82 | 1011.8 |
| 20260502040038 | 48 | 0 | 0.0 | 0.0 | 0.00 | 0.00 | 0.00 | 82 | 1011.7 |
| 20260502034543 | 48 | 0 | 0.0 | 2.0 | 0.00 | 0.00 | 0.00 | 81 | 1011.7 |
| 20260502033033 | 48 | 0 | 0.0 | 2.0 | 0.00 | 0.00 | 0.00 | 81 | 1011.5 |
| 20260502031536 | 48 | 0 | 0.0 | 0.0 | 0.00 | 0.00 | 0.00 | 81 | 1011.7 |
| 20260502030034 | 48 | 0 | 0.0 | 0.0 | 0.00 | 0.00 | 0.00 | 81 | 1011.9 |
| 20260502024533 | 48 | 0 | 0.0 | 0.0 | 0.00 | 0.00 | 0.00 | 79 | 1011.9 |
| 20260502023035 | 48 | 0 | 0.0 | 0.0 | 0.00 | 0.00 | 0.00 | 79 | 1011.8 |
| 20260502021532 | 49 | 0 | 0.0 | 0.0 | 0.00 | 0.00 | 0.00 | 78 | 1011.8 |
| 20260502020032 | 49 | 0 | 0.0 | 0.0 | 0.00 | 0.00 | 0.00 | 76 | 1011.9 |